Weather History for KAFP - November, 2013

Change the Weather History Date:

Thursday, November 7, 2013

  Actual Average (KCLT) Record (KCLT)
Temperature  
Mean Temperature 58 °F 54 °F  
Max Temperature 70 °F 65 °F 78 °F (1888)
Min Temperature 46 °F 42 °F 26 °F (1998)
Degree Days  
Heating Degree Days 6 12  
Month to date heating degree days 76  
Since 1 July heating degree days 282  
Cooling Degree Days 0 0  
Month to date cooling degree days 0  
Year to date cooling degree days 1513  
Growing Degree Days 8 (Base 50)    
Moisture  
Dew Point 51 °F    
Average Humidity 71    
Maximum Humidity 96    
Minimum Humidity 38    
Precipitation  
Precipitation 0.00 in 0.10 in 1.71 in (1935)
Month to date precipitation 0.70  
Year to date precipitation 35.94  
Snow  
Snow 0.00 in 0.00 in 0.00 in ()
Month to date snowfall 0.0  
Since 1 July snowfall 0.0  
Since 1 September snowfall 0.0  
Snow Depth -    
Sea Level Pressure  
Sea Level Pressure 30.04 in    
Wind  
Wind Speed 2 mph (NW)    
Max Wind Speed 21 mph    
Max Gust Speed 28 mph    
Visibility 10 miles    
Events Rain    
T = Trace of Precipitation, MM = Missing Value Source: NWS Daily Summary

Daily Weather History Graph

Daily Weather History Graph

Search for Another Location

Airport or City:

Trip Planner

Search our weather history database for the weather conditions in past years. The results will help you decide how hot, cold, wet, or windy it might be!

Date:

Astronomy

Nov. 07, 2013 Rise Set
Actual Time 6:47 AM EST 5:20 PM EST
Civil Twilight 6:20 AM EST 5:46 PM EST
Nautical Twilight 5:50 AM EST 6:16 PM EST
Astronomical Twilight 5:20 AM EST 6:46 PM EST
Moon 10:52 AM EST (11/7) 9:31 PM EST (11/7)
Length of Visible Light 11h 26m
Length of Day
10h 33m
Waxing Crescent, 22% of the Moon is Illuminated
Nov 7
Waxing Crescent
Nov 10
First Quarter
Nov 17
Full
Nov 25
Last Quarter
Dec 2
New

Hourly Weather History & Observations

Time (EST) Temp. Dew Point Humidity Pressure Visibility Wind Dir Wind Speed Gust Speed Precip Events Conditions
12:15 AM 55.4 °F 54.0 °F 95% 30.12 in 10.0 mi Calm Calm - N/A   Overcast
12:35 AM 56.3 °F 54.9 °F 95% 30.11 in 10.0 mi Calm Calm - N/A   Overcast
12:55 AM 57.2 °F 55.8 °F 95% 30.11 in 10.0 mi Calm Calm - N/A   Overcast
1:15 AM 57.2 °F 55.2 °F 93% 30.11 in 10.0 mi Calm Calm - N/A   Overcast
1:35 AM 57.2 °F 55.4 °F 94% 30.10 in 10.0 mi Calm Calm - N/A Rain Light Rain
1:55 AM 57.2 °F 55.2 °F 93% 30.09 in 10.0 mi Calm Calm - N/A   Overcast
2:15 AM 57.4 °F 55.9 °F 95% 30.08 in 10.0 mi Calm Calm - N/A   Overcast
2:55 AM 58.1 °F 56.3 °F 94% 30.06 in 10.0 mi Calm Calm - N/A   Overcast
3:15 AM 58.1 °F 56.1 °F 93% 30.05 in 10.0 mi Calm Calm - N/A   Overcast
3:35 AM 58.3 °F 56.3 °F 93% 30.04 in 10.0 mi Calm Calm - N/A   Overcast
3:55 AM 58.5 °F 56.3 °F 93% 30.04 in 10.0 mi Calm Calm - N/A   Overcast
4:15 AM 59.0 °F 56.5 °F 91% 30.04 in 10.0 mi Calm Calm - N/A   Overcast
4:35 AM 59.0 °F 56.3 °F 91% 30.03 in 10.0 mi Calm Calm - N/A   Overcast
4:55 AM 59.0 °F 56.3 °F 91% 30.03 in 10.0 mi Calm Calm - N/A   Overcast
5:15 AM 58.6 °F 55.8 °F 90% 30.03 in 10.0 mi Calm Calm - N/A   Overcast
5:35 AM 58.6 °F 56.1 °F 91% 30.02 in 10.0 mi Calm Calm - N/A   Overcast
5:55 AM 58.6 °F 56.1 °F 91% 30.02 in 10.0 mi Calm Calm - N/A   Overcast
6:15 AM 58.6 °F 56.3 °F 92% 30.02 in 10.0 mi Calm Calm - N/A   Overcast
6:35 AM 58.3 °F 55.8 °F 91% 30.02 in 10.0 mi Calm Calm - N/A   Overcast
6:55 AM 57.7 °F 55.6 °F 92% 30.01 in 10.0 mi Calm Calm - N/A   Scattered Clouds
7:15 AM 57.0 °F 55.4 °F 94% 30.02 in 7.0 mi Calm Calm - N/A   Clear
7:35 AM 57.2 °F 55.8 °F 95% 30.03 in 7.0 mi Calm Calm - N/A   Clear
7:55 AM 57.6 °F 56.3 °F 96% 30.03 in 10.0 mi Calm Calm - N/A   Clear
8:15 AM 58.1 °F 56.3 °F 94% 30.03 in 10.0 mi Calm Calm - N/A   Clear
8:35 AM 58.5 °F 55.9 °F 91% 30.03 in 10.0 mi Calm Calm - N/A   Clear
8:55 AM 59.5 °F 56.3 °F 89% 30.03 in 10.0 mi Calm Calm - N/A   Clear
9:15 AM 62.4 °F 56.3 °F 80% 30.02 in 10.0 mi SSW 3.5 mph - N/A   Clear
9:35 AM 65.8 °F 56.7 °F 72% 30.02 in 10.0 mi SSW 4.6 mph - N/A   Clear
9:55 AM 68.2 °F 56.5 °F 66% 30.02 in 10.0 mi Calm Calm - N/A   Mostly Cloudy
10:15 AM 68.4 °F 56.5 °F 66% 30.02 in 10.0 mi WNW 4.6 mph - N/A   Overcast
10:35 AM 68.7 °F 56.5 °F 65% 30.01 in 10.0 mi West 3.5 mph - N/A   Overcast
10:55 AM 69.1 °F 57.0 °F 65% 30.00 in 10.0 mi NW 4.6 mph - N/A   Overcast
11:15 AM 68.7 °F 57.0 °F 66% 30.00 in 10.0 mi NNW 3.5 mph - N/A   Mostly Cloudy
11:35 AM 69.8 °F 57.2 °F 64% 29.99 in 10.0 mi Calm Calm - N/A   Mostly Cloudy
11:55 AM 70.0 °F 57.6 °F 65% 29.97 in 10.0 mi WNW 3.5 mph - N/A   Overcast
12:15 PM 69.8 °F 57.2 °F 64% 29.97 in 10.0 mi WNW 3.5 mph - N/A   Overcast
12:35 PM 68.9 °F 57.6 °F 67% 29.97 in 10.0 mi NW 3.5 mph - N/A   Overcast
12:55 PM 68.4 °F 57.9 °F 69% 29.96 in 10.0 mi NW 4.6 mph - N/A   Overcast
1:15 PM 68.0 °F 57.9 °F 70% 29.96 in 10.0 mi NW 4.6 mph - N/A   Overcast
1:35 PM 68.5 °F 58.1 °F 69% 29.96 in 10.0 mi WNW 4.6 mph - N/A   Overcast
1:55 PM 68.5 °F 58.1 °F 69% 29.95 in 10.0 mi WNW 3.5 mph - N/A   Overcast
2:15 PM 68.9 °F 58.5 °F 69% 29.95 in 10.0 mi WNW 3.5 mph - N/A   Overcast
2:35 PM 69.3 °F 58.8 °F 69% 29.95 in 10.0 mi Calm Calm - N/A   Overcast
2:55 PM 69.4 °F 58.8 °F 69% 29.95 in 10.0 mi West 4.6 mph - N/A   Overcast
3:15 PM 70.9 °F 58.1 °F 64% 29.95 in 10.0 mi NW 5.8 mph - N/A   Overcast
3:35 PM 70.0 °F 57.0 °F 63% 29.95 in 10.0 mi WNW 8.1 mph - N/A   Mostly Cloudy
3:55 PM 69.1 °F 56.7 °F 65% 29.95 in 10.0 mi WNW 3.5 mph - N/A   Scattered Clouds
4:15 PM 70.0 °F 55.9 °F 61% 29.96 in 10.0 mi NW 6.9 mph - N/A   Scattered Clouds
4:35 PM 68.9 °F 55.6 °F 62% 29.96 in 10.0 mi North 6.9 mph - N/A   Mostly Cloudy
4:55 PM 67.1 °F 54.7 °F 64% 29.97 in 10.0 mi North 5.8 mph - N/A   Scattered Clouds
5:55 PM 61.9 °F 52.7 °F 72% 30.00 in 10.0 mi North 3.5 mph - N/A   Clear
6:15 PM 62.8 °F 52.2 °F 68% 30.02 in 10.0 mi NNW 9.2 mph - N/A   Scattered Clouds
6:35 PM 63.5 °F 45.9 °F 53% 30.03 in 10.0 mi NNW 15.0 mph 20.7 mph N/A   Mostly Cloudy
6:55 PM 61.2 °F 36.5 °F 40% 30.05 in 10.0 mi NW 9.2 mph 19.6 mph N/A   Scattered Clouds
7:15 PM 59.4 °F 33.6 °F 38% 30.07 in 10.0 mi NW 11.5 mph 18.4 mph N/A   Clear
7:35 PM 57.6 °F 32.9 °F 39% 30.08 in 10.0 mi NW 12.7 mph 20.7 mph N/A   Clear
7:55 PM 56.5 °F 32.9 °F 41% 30.09 in 10.0 mi NW 10.4 mph 18.4 mph N/A   Clear
8:15 PM 55.2 °F 32.5 °F 42% 30.09 in 10.0 mi NW 9.2 mph - N/A   Clear
8:35 PM 54.3 °F 32.9 °F 44% 30.10 in 10.0 mi NW 9.2 mph - N/A   Clear
8:55 PM 53.2 °F 32.4 °F 45% 30.11 in 10.0 mi NNW 10.4 mph 16.1 mph N/A   Clear
9:15 PM 53.6 °F 29.8 °F 40% 30.11 in 10.0 mi NNW 20.7 mph 27.6 mph N/A   Clear
9:35 PM 53.1 °F 29.5 °F 40% 30.12 in 10.0 mi NNW 13.8 mph 20.7 mph N/A   Clear
9:55 PM 51.4 °F 30.2 °F 44% 30.12 in 10.0 mi NNW 8.1 mph - N/A   Clear
10:15 PM 50.0 °F 30.9 °F 48% 30.12 in 10.0 mi NNW 6.9 mph - N/A   Clear
10:35 PM 49.3 °F 30.7 °F 49% 30.12 in 10.0 mi North 3.5 mph - N/A   Clear
10:55 PM 49.1 °F 30.9 °F 50% 30.13 in 10.0 mi NNW 5.8 mph - N/A   Clear
11:15 PM 48.2 °F 31.1 °F 52% 30.13 in 10.0 mi North 5.8 mph - N/A   Clear
11:35 PM 47.3 °F 31.1 °F 53% 30.12 in 10.0 mi North 4.6 mph - N/A   Clear
11:55 PM 46.8 °F 31.5 °F 55% 30.13 in 10.0 mi North 5.8 mph - N/A   Clear